Tracking 17884 objects as of 5-December-2016
HD Live streaming from Space Station
objects crossing your sky now

AMC-5 (GE-5)

Track AMC-5 (GE-5) now!
AMC-5 (GE-5) is classified as:


NORAD ID: 25516
Int'l Code: 1998-063B
Perigee: -6,371.0 km
Apogee: -6,371.0 km
Inclination: 5.0 °
Period: 0.0 minutes
Semi major axis: 0 km
RCS: 9.3322 m2 (large)
Launch date: October 28, 1998
Source: SOCIETE EUROPEENNE DES SATELLITES (SES)
Launch site: FRENCH GUIANA (FRGUI)

Broadband internet, business television; 16 Ku-band; CONUS
Your satellite tracking list
Your tracking list is empty





NASA's NSSDC Master Catalog

Two Line Element Set (TLE):
1 25516U 98063B   16338.34647035 -.00000210  00000-0  00000+0 0  9991
2 25516   5.0327  61.6998 0004854 210.3039 271.7111  0.99336451 66255
Source of the keplerian elements: AFSPC